SCP
0 0 0 0 0 0 0 0 0 0 0 0 0 0 0 0 0 0 0 0 0 0 0 0 0 0 0 0 0 0 0 0 0 0 0 0 0 0 0 0 0 0 0 0
0 0 0 0 0 0 0 0 0 0 0 0 0 0 0 0 0 0 0 0 0 0 0 0 0 0 0 0 0 0 0 0 0 0 0 0 0 0 0 0 0 0 0 0
0 0 0 0 0 0 0 0 0 0 0 0 0 0 0 0 0 0 0 0 0 0 0 0 0 0 0 0 0 0 0 0 0 0 0 0 0 0 0 0 0 0 0 0
0 0 0 0 0 0 0 0 0 0 0 0 0 0 0 0 0 0 0 0 0 0 0 0 0 0 0 0 0 0 0 0 0 0 0 0 0 0 0 0 0 0 0 0
0 0 0 0 0 0 0 0 0 0 0 0 0 0 0 0 0 0 0 0 0 0 0 0 0 0 0 0 0 0 0 0 0 0 0 0 0 0 0 0 0 0 0 0
0 0 0 0 0 0 0 0 0 0 0 0 0 0 0 0 0 0 0 0 0 0 0 0 0 0 0 0 0 0 0 0 0 0 0 0 0 0 0 0 0 0 0 0
0 0 0 0 0 0 0 0 0 0 0 0 0 0 0 0 0 0 0 0 0 0 0 0 0 0 0 0 0 0 0 0 0 0 0 0 0 0 0 0 0 0 0 0
0 0 0 0 0 0 0 0 0 0 0 0 0 0 0 0 0 0 0 0 0 0 0 0 0 0 0 0 0 0 0 0 0 0 0 0 0 0 0 0 0 0 0 0
0 0 0 0 0 0 0 0 0 0 0 0 0 0 0 0 0 0 0 0 0 0 0 0 0 0 0 0 0 0 0 0 0 0 0 0 0 0 0 0 0 0 0 0
0 0 0 0 0 0 0 0 0 0 0 0 0 0 0 0 0 0 0 0 0 0 0 0 0 0 0 0 0 0 0 0 0 0 0 0 0 0 0 0 0 0 0 0
0 0 0 0 0 0 0 0 0 0 0 0 0 0 0 0 0 0 0 0 0 0 0 0 0 0 0 0 0 0 0 0 0 0 0 0 0 0 0 0 0 0 0 0
0 0 0 0 0 0 0 0 0 0 0 0 0 0 0 0 0 0 0 0 0 0 0 0 0 0 0 0 0 0 0 0 0 0 0 0 0 0 0 0 0 0 0 0
0 0 0 0 0 0 0 0 0 0 0 0 0 0 0 0 0 0 0 0 0 0 0 0 0 0 0 0 0 0 0 0 0 0 0 0 0 0 0 0 0 0 0 0
0 0 0 0 0 0 0 0 0 0 0 0 0 0 0 0 0 0 0 0 0 0 0 0 0 0 0 0 0 0 0 0 0 0 0 0 0 0 0 0 0 0 0 0
0 0 0 0 0 0 0 0 0 0 0 0 0 0 0 0 0 0 0 0 0 0 0 0 0 0 0 0 0 0 0 0 0 0 0 0 0 0 0 0 0 0 0 0
0 0 0 0 0 0 0 0 0 0 0 0 0 0 0 0 0 0 0 0 0 0 0 0 0 0 0 0 0 0 0 0 0 0 0 0 0 0 0 0 0 0 0 0
0 0 0 0 0 0 0 0 0 0 0 0 0 0 0 0 0 0 0 0 0 0 0 0 0 0 0 0 0 0 0 0 0 0 0 0 0 0 0 0 0 0 0 0
0 0 0 0 0 0 0 0 0 0 0 0 0 0 0 0 0 0 0 0 0 0 0 0 0 0 0 0 0 0 0 0 0 0 0 0 0 0 0 0 0 0 0 0
0 0 0 0 0 0 0 0 0 0 0 0 0 0 0 0 0 0 0 0 0 0 0 0 0 0 0 0 0 0 0 0 0 0 0 0 0 0 0 0 0 0 0 0
0 0 0 0 0 0 0 0 0 0 0 0 0 0 0 0 0 0 0 0 0 0 0 0 0 0 0 0 0 0 0 0 0 0 0 0 0 0 0 0 0 0 0 0
0 0 0 0 0 0 0 0 0 0 0 0 0 0 0 0 0 0 0 0 0 0 0 0 0 0 0 0 0 0 0 0 0 0 0 0 0 0 0 0 0 0 0 0
0 0 0 0 0 0 0 0 0 0 0 0 0 0 0 0 0 0 0 0 0 0 0 0 0 0 0 0 0 0 0 0 0 0 0 0 0 0 0 0 0 0 0 0
0 0 0 0 0 0 0 0 0 0 0 0 0 0 0 0 0 0 0 0 0 0 0 0 0 0 0 0 0 0 0 0 0 0 0 0 0 0 0 0 0 0 0 0
0 0 0 0 0 0 0 0 0 0 0 0 0 0 0 0 0 0 0 0 0 0 0 0 0 0 0 0 0 0 0 0 0 0 0 0 0 0 0 0 0 0 0 0
0 0 0 0 0 0 0 0 0 0 0 0 0 0 0 0 0 0 0 0 0 0 0 0 0 0 0 0 0 0 0 0 0 0 0 0 0 0 0 0 0 0 0 0
0 0 0 0 0 0 0 0 0 0 0 0 0 0 0 0 0 0 0 0 0 0 0 0 0 0 0 0 0 0 0 0 0 0 0 0 0 0 0 0 0 0 0 0
0 0 0 0 0 0 0 0 0 0 0 0 0 0 0 0 0 0 0 0 0 0 0 0 0 0 0 0 0 0 0 0 0 0 0 0 0 0 0 0 0 0 0 0
Wind_Speed
6 5 5 7 8 9 11 11 11 10 11 13 9 9 8 7 6 7 7 8 9 8 6 5 5 4 4 3 3 3 3 3 5 6 6 6 7 7 7 7 8 8 9 9
3 4 5 6 9 10 11 10 11 10 14 9 5 4 4 6 8 9 8 8 8 7 7 6 6 5 4 3 3 2 3 5 5 6 6 7 7 7 7 8 8 8 9 9
3 2 1 8 11 11 8 9 9 13 14 5 3 6 7 7 8 9 8 8 8 8 7 6 6 5 4 4 2 2 4 5 5 6 7 7 7 7 8 8 8 9 9 9
3 3 8 11 4 6 7 8 9 8 6 4 5 3 1 4 7 7 7 7 7 6 5 4 4 3 3 2 2 3 4 5 6 6 7 7 7 8 8 8 8 9 9 10
4 4 8 10 5 5 6 8 6 8 6 2 3 3 3 1 4 5 6 6 5 5 4 4 3 3 2 2 2 3 5 6 7 7 7 7 8 9 8 8 8 9 9 10
5 5 8 9 3 2 3 7 5 6 7 6 6 3 5 2 3 4 5 5 5 4 3 3 2 2 2 3 3 5 6 7 7 7 7 8 9 9 8 8 9 9 10 9
5 6 10 8 3 5 4 8 2 5 6 8 7 6 3 5 4 4 4 4 4 4 3 2 2 1 2 3 5 6 6 6 7 7 8 9 8 8 8 9 9 9 11 10
6 5 12 5 7 9 8 2 2 3 5 6 4 4 5 5 5 5 4 3 3 3 2 2 2 1 3 5 6 6 6 7 8 8 8 8 8 9 8 9 10 10 10 11
11 10 5 6 8 5 4 5 4 4 4 6 6 5 5 4 4 3 3 3 2 2 2 2 2 2 4 6 6 6 6 8 8 9 8 8 8 9 9 8 8 9 9 10
5 8 5 5 4 3 4 5 4 4 5 7 6 6 5 4 3 3 2 2 2 1 2 3 4 4 5 6 6 6 7 8 8 8 8 8 7 7 8 8 8 9 10 10
6 5 2 5 6 6 4 4 5 4 4 6 6 5 5 4 4 3 2 1 2 2 3 5 5 6 6 6 6 7 8 8 8 8 8 8 8 7 9 8 10 12 10 9
9 9 8 7 5 6 7 6 6 6 4 4 5 5 4 3 3 2 2 2 2 3 4 6 6 7 7 6 6 7 8 8 7 7 7 7 9 10 14 17 22 24 23 21
5 3 4 3 3 4 5 5 5 5 6 5 3 4 4 3 2 2 2 3 4 5 6 6 6 8 8 7 6 7 9 9 7 7 7 8 8 9 12 14 18 21 23 24
3 5 3 3 3 4 5 5 6 5 4 4 3 3 2 2 1 2 3 4 4 5 6 6 7 9 8 7 7 8 9 11 10 7 7 8 8 9 10 11 13 10 14 21
1 3 5 5 6 5 6 6 6 5 3 3 2 2 2 2 3 4 4 4 4 5 6 7 8 9 8 7 8 9 8 7 7 7 8 8 8 9 9 11 12 12 10 12
4 5 6 7 7 6 6 6 5 3 3 2 1 1 2 2 3 4 5 4 5 7 8 8 9 10 8 8 8 8 7 15 15 9 8 8 8 9 10 10 11 11 11 10
6 5 5 5 5 5 4 4 4 3 2 2 2 2 2 2 3 5 5 5 6 7 8 8 10 10 9 8 8 7 7 10 17 12 8 8 9 10 10 10 11 11 10 12
5 5 6 7 6 5 4 3 3 2 2 2 1 1 2 3 5 6 7 7 7 8 8 9 9 9 8 8 8 7 7 8 8 9 9 9 10 10 10 10 11 12 11 12
6 6 6 6 6 5 4 3 2 1 1 1 2 3 4 5 5 6 6 7 8 10 9 8 15 11 9 10 13 7 8 9 9 9 9 14 13 9 9 10 11 11 12 11
6 6 6 5 4 4 3 2 1 0 1 1 2 3 5 6 6 6 7 7 7 8 8 11 10 8 8 10 15 8 8 9 10 10 9 9 10 10 10 11 11 11 11 10
6 6 5 4 3 2 1 1 0 1 2 2 3 5 6 7 7 6 6 8 8 8 9 15 9 7 8 11 15 8 8 9 9 9 9 10 10 11 11 11 11 11 11 11
4 4 4 3 2 1 1 1 1 2 3 4 5 5 6 7 7 7 7 8 8 13 10 7 7 12 17 19 8 7 8 9 9 9 9 10 10 11 11 12 11 11 11 10
3 3 3 2 1 1 2 2 2 3 4 5 6 6 7 7 6 7 9 6 6 14 12 7 14 23 26 13 7 8 9 10 10 10 10 10 10 11 11 12 11 11 10 10
3 2 2 1 1 1 3 4 4 4 5 6 6 7 7 6 6 5 7 13 17 19 10 14 23 25 23 8 7 8 9 10 10 10 11 10 10 10 11 11 11 11 11 12
2 1 1 1 1 2 3 4 4 5 5 5 6 6 5 5 7 8 7 8 15 18 10 14 22 23 14 8 9 10 9 10 12 12 10 10 10 11 11 11 11 11 11 11
1 0 1 1 2 2 3 3 3 4 5 6 6 5 5 5 7 7 7 9 11 16 12 9 10 13 9 9 10 11 10 12 12 11 11 12 12 12 11 11 13 12 12 12
1 1 1 2 2 2 3 3 4 5 5 6 8 7 6 7 7 8 9 9 9 9 9 9 9 9 10 10 10 11 10 10 11 11 11 11 11 11 12 13 12 12 11 12
Wind_Direction
223 225 191 210 217 200 201 209 216 237 240 250 232 223 221 208 188 176 178 177 178 177 175 173 175 181 185 198 210 211 227 252 262 268 272 275 277 278 279 279 280 279 282 283
244 232 217 241 240 223 223 224 232 251 261 252 235 207 207 200 186 186 187 184 178 171 170 176 181 186 194 210 222 221 240 258 268 275 278 278 279 280 281 281 280 280 281 282
236 263 10 262 234 219 217 215 203 230 248 243 210 207 208 201 192 192 188 179 175 175 178 182 187 188 198 214 227 239 255 268 274 277 280 280 283 285 283 282 280 281 280 280
170 143 230 242 232 206 216 239 221 230 245 218 204 198 215 192 185 187 178 172 171 168 171 178 179 185 193 212 233 251 266 273 276 279 280 282 283 281 281 280 280 281 282 281
152 207 267 286 254 193 201 260 227 218 224 185 128 75 344 271 176 178 173 164 163 163 161 160 171 179 182 241 257 266 271 275 278 278 281 283 283 282 282 284 285 282 282 282
151 184 235 248 224 158 122 273 242 189 186 168 137 162 246 193 140 135 133 136 139 138 134 149 179 170 190 254 265 268 270 273 276 276 276 280 280 281 281 283 284 287 287 282
175 212 255 250 176 129 184 245 216 171 174 169 184 199 175 136 127 131 128 130 130 131 145 183 193 180 239 263 263 265 271 276 277 276 276 277 278 278 283 287 289 288 288 285
163 197 249 209 151 186 214 192 153 159 167 171 171 129 131 136 135 132 126 129 134 140 181 227 219 213 255 265 266 271 276 278 280 280 282 289 284 285 285 287 290 290 291 291
189 210 232 181 197 207 166 171 178 167 163 151 151 159 155 152 149 146 146 150 151 161 214 267 260 239 257 269 275 279 280 280 282 284 281 280 281 287 290 286 287 290 291 292
224 251 237 219 220 204 183 180 171 159 152 153 159 162 159 157 160 161 162 168 166 177 244 274 275 269 260 272 277 278 280 283 284 285 286 282 280 281 284 286 286 287 290 292
232 254 262 247 219 200 175 152 138 135 144 156 152 158 164 168 177 182 187 197 197 222 251 266 275 276 275 275 277 279 281 283 285 282 283 287 282 276 282 272 277 289 288 287
218 210 194 218 202 175 165 170 161 145 131 134 149 157 157 170 183 187 201 218 245 257 263 270 274 276 278 276 274 278 286 285 283 284 285 286 289 292 287 288 294 295 296 296
211 182 169 157 140 148 155 159 153 146 146 140 138 143 150 166 181 192 224 244 254 262 268 272 275 278 279 277 275 273 278 284 285 284 286 288 289 292 297 299 295 295 297 299
156 123 130 158 156 136 128 125 117 110 114 124 131 130 136 154 194 236 251 257 262 269 273 274 276 279 280 278 277 276 277 285 290 284 284 284 285 286 288 294 299 296 295 296
139 145 150 132 119 115 115 115 112 112 113 109 115 129 153 198 246 261 268 273 276 277 278 279 280 282 283 281 280 280 281 280 282 280 280 280 283 286 287 288 290 293 294 294
117 102 113 123 130 127 123 126 131 142 141 140 150 207 231 242 260 273 278 278 278 280 282 282 281 284 287 285 283 282 280 290 297 291 285 286 287 287 288 288 289 290 290 293
138 146 145 144 146 141 142 146 151 156 158 178 220 248 273 285 286 284 283 279 271 272 275 277 280 285 286 282 280 282 282 287 295 295 285 285 286 285 285 286 287 288 287 291
146 153 155 153 151 143 136 132 135 146 178 213 243 269 276 276 278 281 284 289 289 286 281 277 280 287 283 283 283 281 282 281 283 284 285 285 286 283 284 286 288 289 291 293
110 116 117 121 128 129 130 136 146 170 216 236 257 268 271 273 275 279 285 288 289 291 287 281 297 301 288 288 296 283 280 284 287 286 285 290 295 289 288 288 289 290 291 292
102 104 104 103 101 111 122 131 141 243 269 265 276 284 287 285 284 286 286 280 272 270 279 289 293 285 283 285 295 285 282 285 287 289 290 289 290 290 289 289 289 290 291 290
109 106 103 100 91 87 102 120 163 286 295 292 280 278 281 285 285 285 286 289 283 278 286 297 299 290 291 293 299 290 286 287 288 288 290 291 291 291 291 291 291 292 291 290
108 104 99 94 87 47 358 348 304 292 296 295 287 282 284 288 288 283 268 269 284 298 303 290 288 295 302 306 297 291 290 290 290 290 288 289 290 292 292 291 290 290 290 289
105 103 98 91 83 329 326 320 302 289 284 284 285 286 283 282 283 287 294 288 289 301 305 290 299 306 309 310 296 293 292 292 292 291 290 289 289 289 289 289 289 289 289 289
99 90 81 61 51 4 316 304 301 293 282 281 277 276 280 289 287 270 272 297 306 307 303 300 308 310 314 309 297 293 291 290 289 287 287 287 287 286 287 287 287 287 286 286
100 88 66 24 339 292 283 295 301 296 291 286 282 280 276 271 280 291 291 291 301 308 302 304 309 312 311 296 294 292 291 288 289 292 290 291 289 288 287 286 286 287 287 286
93 58 279 268 263 270 280 288 290 293 298 300 297 291 287 284 283 288 293 293 293 304 305 300 298 302 297 293 292 292 291 293 295 293 289 289 289 289 289 289 289 288 287 286
32 345 317 309 294 279 278 283 287 292 294 296 299 298 296 297 297 298 298 299 300 300 299 298 297 296 296 295 295 294 293 292 291 291 291 290 289 289 289 289 289 288 287 285